Wind_Speed
12 12 11 11 11 12 12 12 12 12 12 12 12 13 13 12 12 13 13 13 13 13 13 13 13 13 14 14 14 14 14 13 12 11 11 10 10 11 10 9 9 9 8 8
13 13 12 12 12 12 12 12 12 13 13 13 13 12 13 14 13 14 14 14 14 14 14 14 14 14 14 14 14 14 14 14 13 12 11 10 10 9 9 9 10 9 8 7
14 13 12 12 12 12 12 12 12 13 14 14 14 14 14 14 14 15 15 15 15 15 14 15 15 15 15 15 15 15 15 14 13 12 12 11 10 10 9 9 9 9 8 8
13 13 13 12 12 12 12 12 13 13 14 14 15 14 13 13 14 14 15 15 15 15 15 15 16 16 16 16 16 15 15 14 14 13 12 11 11 10 10 9 9 9 9 8
13 13 13 13 12 11 11 12 13 13 13 14 14 14 12 13 14 14 14 14 14 14 14 15 15 16 16 17 17 16 16 15 15 13 12 12 11 11 10 9 9 9 9 9
14 14 14 13 12 12 11 12 13 13 13 13 13 13 12 12 13 14 15 14 14 14 14 15 15 16 16 17 17 17 17 16 15 14 13 13 12 11 10 10 10 10 9 9
14 14 13 13 13 13 12 13 13 13 13 12 12 13 11 12 13 14 14 14 14 15 15 15 14 15 16 16 16 16 16 16 16 15 15 14 13 13 12 10 10 10 9 9
14 13 13 13 13 13 13 13 13 13 13 12 12 12 12 13 13 14 14 15 15 15 15 15 15 15 15 16 16 17 17 16 16 16 16 15 14 13 12 11 10 10 10 9
14 14 13 13 12 13 13 13 13 13 13 12 12 12 12 13 13 14 15 15 15 15 15 15 15 16 16 16 17 17 18 18 17 17 16 16 15 14 13 12 11 10 10 10
14 14 14 13 13 13 13 13 13 13 13 13 12 13 12 12 13 14 15 14 15 15 15 15 16 17 18 18 18 18 18 18 18 17 17 16 15 14 13 12 11 11 10 10
14 14 14 14 14 13 13 13 13 14 14 14 13 12 13 12 12 13 14 14 14 15 16 16 17 17 19 19 18 17 18 18 17 17 17 17 16 15 14 13 11 11 10 10
15 14 14 14 14 14 14 14 14 14 15 13 13 12 12 12 12 13 14 14 14 15 16 17 18 18 18 19 18 17 17 16 16 16 16 16 16 15 14 13 12 12 11 10
16 16 16 15 15 15 14 15 15 15 15 15 14 12 11 12 12 13 14 13 13 14 15 16 18 18 18 18 18 18 17 16 16 16 16 16 15 15 14 14 13 12 12 11
17 17 16 16 15 15 15 15 15 15 15 15 14 13 12 13 13 14 14 14 14 14 14 15 16 17 17 17 18 18 17 16 16 16 15 16 15 15 15 15 14 13 13 12
17 17 17 16 15 15 15 15 15 15 14 14 13 13 12 13 14 14 13 13 13 12 13 14 16 16 16 17 17 17 17 17 17 16 15 15 16 16 16 15 14 13 13 13
18 18 17 17 16 16 16 14 15 14 14 13 13 12 11 13 14 14 14 13 13 12 12 13 14 15 16 16 17 17 16 17 17 17 16 16 16 16 16 16 15 14 14 13
19 18 18 17 16 16 16 14 14 14 14 14 13 12 12 13 14 15 15 14 13 13 13 14 14 16 17 17 17 16 16 17 17 17 17 16 16 17 17 16 16 15 15 14
20 19 19 18 17 17 14 14 14 14 14 14 12 12 12 13 14 14 14 14 13 13 13 14 15 15 16 16 16 16 16 16 16 17 17 16 16 17 17 17 16 16 16 16
20 19 19 19 18 17 15 14 14 15 14 14 13 13 13 13 14 14 15 15 14 14 14 14 16 16 16 16 16 16 16 16 15 15 16 16 17 17 17 17 17 17 17 17
20 19 19 19 18 18 16 15 15 15 14 14 14 14 14 14 14 14 14 14 14 14 14 14 15 15 15 15 16 17 17 16 16 15 15 16 17 17 17 17 18 17 17 17
21 20 19 19 18 17 15 15 15 15 13 13 14 14 14 13 13 14 14 15 14 14 15 15 15 15 15 16 16 16 16 16 16 16 16 16 16 16 16 16 17 17 17 16
21 21 20 19 19 17 16 16 16 14 13 14 14 14 14 14 14 14 14 14 14 14 15 15 15 15 15 15 16 16 16 16 17 17 16 16 16 16 16 16 17 17 17 16
22 22 21 20 19 18 17 16 16 15 15 14 14 14 14 14 14 14 14 14 14 14 14 15 15 15 15 15 16 17 17 17 17 17 17 17 17 17 17 17 17 17 18 18
23 23 22 21 19 18 17 16 16 16 16 15 15 15 15 15 15 15 14 14 15 15 15 15 15 15 15 15 16 16 16 17 18 18 18 18 18 18 18 18 18 18 19 19
23 24 23 22 21 19 18 17 17 17 16 16 15 14 15 15 15 15 15 16 16 17 15 15 15 16 16 16 16 17 17 17 17 18 18 18 18 18 18 19 19 20 20 19
23 23 24 23 22 21 19 18 18 18 17 17 16 15 15 16 16 16 16 16 16 17 17 16 16 17 17 17 17 17 17 18 18 18 19 19 19 19 19 20 20 20 20 20
Wind_Direction
256 253 251 251 251 250 250 248 247 248 246 241 238 239 239 243 237 232 228 224 224 228 229 233 230 226 223 220 220 218 220 222 225 229 231 235 236 237 240 247 253 260 263 269
255 251 251 251 250 249 251 249 247 248 250 247 243 240 239 242 240 235 231 229 226 228 232 233 231 226 221 219 219 218 218 218 221 223 223 231 235 237 243 249 254 256 258 266
255 252 249 249 250 250 252 252 247 249 248 248 245 242 241 239 242 239 233 232 232 230 231 233 230 226 219 217 218 220 220 220 221 222 225 229 229 236 245 249 252 252 255 262
249 248 247 247 248 250 253 254 249 248 248 248 250 246 242 242 242 239 235 235 234 233 233 232 230 226 221 220 221 223 223 225 226 224 225 230 232 236 240 247 250 250 256 259
247 247 246 246 249 254 255 254 251 249 250 250 248 246 242 245 240 236 234 233 232 232 232 230 227 224 223 224 224 225 223 225 229 229 229 229 231 234 240 245 248 252 254 256
246 245 245 246 247 250 249 249 249 247 247 250 249 246 237 242 240 237 234 233 233 232 229 229 226 224 226 226 227 228 227 227 229 231 233 235 236 237 241 247 249 249 252 255
246 245 243 243 243 245 246 248 248 246 244 249 249 244 237 238 238 237 237 235 234 232 232 232 227 227 228 228 229 229 229 231 231 231 234 237 238 241 245 246 250 247 246 249
247 247 246 244 244 246 248 250 252 252 252 252 248 246 241 241 240 239 239 238 237 234 232 231 229 229 230 230 229 229 229 230 231 232 234 236 238 240 242 246 251 250 244 246
246 248 246 245 245 244 245 246 252 254 253 253 248 245 244 242 244 242 242 241 239 234 231 230 231 229 230 230 230 229 230 230 230 233 233 232 238 239 238 244 249 253 245 245
242 243 242 240 241 243 244 245 250 252 254 253 250 247 245 247 250 246 242 240 239 235 234 234 234 232 231 231 232 230 232 234 235 235 233 234 235 238 240 243 247 248 243 241
239 241 243 242 239 243 242 242 247 249 256 258 257 254 250 254 253 245 240 238 238 239 238 237 236 234 233 232 233 234 233 235 235 234 233 233 234 236 239 240 241 245 243 239
237 240 242 243 239 241 246 250 253 255 257 259 261 258 251 250 249 245 243 240 239 240 242 240 237 234 234 233 232 232 232 232 232 232 231 231 234 235 235 238 241 244 247 250
235 238 239 240 240 241 244 249 251 252 255 257 256 256 250 246 245 243 242 241 242 244 244 241 237 234 234 232 229 228 231 231 230 231 230 231 232 234 236 239 242 243 247 252
237 238 240 242 244 243 246 249 250 251 255 257 255 253 250 246 246 245 244 244 246 247 246 242 238 233 230 228 228 230 230 229 227 229 230 229 231 233 235 239 241 244 248 253
237 239 239 240 243 245 248 251 251 254 257 258 254 248 245 246 245 246 246 246 246 248 245 241 238 233 231 230 231 230 230 228 227 229 230 230 233 234 235 238 242 246 249 253
238 241 238 238 241 244 247 248 250 254 256 254 249 242 242 244 243 243 243 243 243 244 242 239 236 234 234 234 233 230 230 229 229 229 231 234 235 235 235 238 242 247 251 254
235 238 239 240 241 244 244 246 249 250 249 249 247 242 241 243 242 242 242 243 242 242 242 238 235 235 233 235 235 233 231 231 231 231 233 235 239 238 237 240 244 248 252 257
234 235 239 241 241 243 244 244 249 249 248 249 247 242 241 243 243 243 243 242 242 245 243 238 235 235 233 233 234 233 230 229 231 232 234 238 242 242 241 243 246 250 254 258
232 235 236 239 240 242 243 242 245 248 246 247 245 243 241 242 243 243 245 244 245 246 243 241 240 239 237 235 234 231 228 228 231 234 237 241 242 243 244 248 250 253 256 256
232 235 236 238 241 244 242 243 246 248 244 243 243 243 245 245 245 245 245 244 244 242 242 242 241 240 237 235 233 234 233 233 236 239 240 243 245 246 250 252 253 255 257 259
233 235 237 239 242 243 240 243 245 246 245 245 245 244 247 247 246 244 243 242 239 242 243 244 244 243 241 238 235 235 233 235 239 242 244 247 249 251 253 256 257 258 260 262
235 237 240 241 243 241 241 243 243 246 246 247 247 246 247 247 242 239 241 240 239 242 241 242 242 242 241 240 237 236 237 239 243 246 246 248 250 252 256 259 259 259 260 262
236 238 242 243 244 243 242 244 243 244 246 248 249 248 248 246 243 239 239 242 242 244 242 242 242 243 244 242 241 240 240 243 247 249 249 250 250 253 257 260 261 262 260 261
235 237 239 240 242 243 241 241 243 244 244 247 249 250 249 247 244 241 242 245 243 246 245 246 248 248 248 246 244 245 245 247 248 250 251 251 252 255 258 260 261 263 265 265
235 236 236 236 239 240 240 241 242 244 244 245 247 248 249 247 245 244 245 247 247 245 245 247 250 249 247 246 247 250 249 249 251 251 251 253 255 257 258 260 263 264 265 266
233 235 235 236 236 239 240 241 242 245 246 246 246 247 248 247 246 245 246 247 246 244 246 248 249 249 249 249 249 249 252 253 254 253 252 253 255 257 259 260 263 265 267 266
Height
5831 5833 5833 5834 5835 5836 5837 5838 5839 5840 5841 5842 5843 5844 5846 5847 5849 5850 5852 5853 5855 5856 5858 5859 5860 5862 5864 5865 5867 5869 5870 5872 5873 5874 5876 5877 5878 5879 5879 5880 5881 5881 5881 5880
5830 5830 5831 5831 5832 5833 5834 5835 5836 5837 5838 5840 5841 5842 5843 5844 5846 5848 5849 5851 5852 5854 5855 5857 5858 5860 5861 5863 5864 5866 5868 5869 5871 5872 5874 5875 5876 5877 5878 5878 5879 5879 5879 5879
5827 5829 5829 5829 5830 5831 5832 5833 5834 5835 5836 5837 5839 5840 5841 5842 5843 5845 5846 5848 5849 5851 5852 5854 5856 5857 5859 5861 5862 5864 5865 5867 5869 5870 5871 5872 5873 5875 5876 5876 5877 5877 5877 5877
5823 5825 5826 5827 5827 5828 5830 5831 5832 5832 5833 5834 5836 5837 5839 5839 5840 5842 5844 5845 5846 5848 5849 5851 5853 5855 5856 5858 5860 5862 5863 5865 5866 5868 5869 5870 5871 5873 5873 5874 5874 5875 5875 5875
5821 5822 5823 5824 5826 5826 5827 5828 5829 5830 5830 5832 5833 5835 5837 5837 5838 5839 5841 5842 5843 5845 5846 5848 5850 5852 5854 5855 5857 5859 5861 5862 5864 5865 5867 5868 5869 5870 5871 5872 5872 5873 5873 5873
5818 5819 5820 5822 5823 5824 5825 5826 5826 5827 5828 5830 5831 5832 5834 5834 5836 5837 5838 5839 5841 5842 5844 5845 5847 5849 5851 5853 5854 5856 5858 5860 5861 5863 5864 5865 5867 5868 5869 5870 5871 5871 5871 5872
5815 5816 5817 5819 5820 5821 5822 5824 5824 5824 5825 5827 5828 5829 5832 5832 5833 5834 5835 5837 5838 5839 5841 5842 5844 5846 5848 5850 5852 5853 5855 5857 5858 5860 5862 5863 5864 5866 5867 5868 5868 5869 5869 5870
5812 5813 5815 5816 5817 5819 5820 5821 5823 5823 5824 5825 5825 5826 5830 5829 5830 5831 5833 5834 5835 5836 5838 5840 5842 5843 5845 5847 5849 5851 5852 5854 5856 5857 5859 5860 5862 5863 5864 5865 5866 5867 5867 5867
5809 5811 5812 5814 5815 5816 5817 5818 5820 5821 5820 5822 5823 5824 5826 5826 5827 5829 5830 5831 5832 5833 5835 5837 5838 5840 5842 5844 5846 5847 5849 5851 5853 5855 5856 5858 5859 5861 5862 5863 5864 5864 5865 5865
5806 5808 5809 5811 5812 5813 5815 5816 5817 5818 5818 5819 5821 5822 5824 5824 5824 5826 5827 5828 5829 5831 5832 5833 5835 5837 5838 5840 5842 5844 5846 5848 5849 5851 5853 5855 5856 5858 5859 5860 5861 5862 5862 5863
5803 5805 5807 5808 5809 5811 5812 5813 5814 5815 5816 5817 5818 5822 5821 5821 5821 5822 5824 5825 5826 5828 5829 5830 5832 5833 5835 5837 5839 5841 5842 5844 5846 5848 5850 5852 5853 5855 5856 5858 5859 5859 5860 5860
5800 5802 5803 5805 5806 5808 5809 5810 5811 5813 5814 5814 5815 5820 5817 5818 5819 5820 5821 5822 5823 5824 5825 5826 5828 5829 5831 5833 5835 5837 5839 5841 5842 5844 5846 5848 5850 5852 5853 5855 5856 5857 5858 5858
5796 5798 5800 5801 5804 5805 5805 5806 5807 5809 5810 5811 5812 5816 5814 5815 5816 5817 5818 5819 5819 5820 5821 5822 5824 5825 5827 5829 5831 5833 5835 5837 5839 5841 5843 5845 5847 5849 5850 5852 5853 5854 5855 5855
5792 5794 5797 5799 5800 5801 5802 5803 5804 5805 5806 5807 5809 5811 5811 5812 5813 5814 5815 5815 5816 5817 5818 5818 5820 5821 5823 5825 5827 5829 5831 5833 5836 5838 5840 5841 5843 5845 5847 5849 5850 5851 5852 5852
5788 5790 5792 5794 5796 5797 5799 5800 5801 5802 5803 5804 5806 5807 5808 5809 5810 5810 5811 5812 5813 5813 5814 5815 5817 5818 5820 5822 5824 5826 5828 5830 5832 5834 5836 5838 5840 5842 5844 5845 5847 5848 5848 5849
5784 5786 5788 5790 5792 5793 5794 5796 5797 5798 5799 5800 5802 5803 5804 5805 5806 5807 5808 5809 5810 5811 5811 5812 5814 5815 5817 5819 5821 5822 5824 5826 5828 5831 5833 5835 5837 5839 5840 5841 5843 5844 5845 5846
5779 5782 5784 5786 5788 5789 5791 5793 5794 5795 5796 5797 5799 5801 5801 5801 5802 5803 5804 5805 5807 5808 5808 5809 5811 5812 5814 5816 5818 5819 5821 5823 5825 5827 5829 5831 5833 5835 5836 5838 5839 5840 5841 5842
5775 5777 5780 5782 5784 5785 5790 5790 5790 5791 5793 5794 5795 5796 5797 5798 5799 5800 5801 5802 5803 5804 5805 5807 5808 5809 5811 5813 5814 5816 5817 5819 5822 5824 5826 5827 5829 5831 5832 5834 5835 5836 5837 5838
5771 5773 5776 5778 5779 5781 5785 5786 5787 5788 5790 5791 5792 5793 5794 5795 5796 5797 5798 5799 5800 5801 5802 5804 5805 5806 5808 5809 5811 5812 5814 5816 5818 5820 5822 5824 5825 5827 5828 5829 5831 5832 5832 5833
5767 5769 5772 5773 5775 5777 5782 5783 5783 5785 5786 5788 5788 5789 5790 5791 5793 5794 5795 5795 5796 5798 5799 5800 5801 5802 5804 5805 5807 5809 5811 5813 5814 5816 5818 5819 5821 5822 5824 5825 5826 5827 5828 5829
5762 5765 5767 5769 5771 5773 5777 5778 5780 5782 5785 5784 5785 5786 5787 5788 5789 5791 5791 5792 5793 5794 5795 5797 5798 5799 5800 5802 5803 5805 5807 5809 5811 5812 5814 5815 5816 5818 5819 5820 5821 5822 5823 5824
5758 5760 5762 5765 5767 5772 5772 5774 5776 5778 5779 5780 5781 5782 5783 5784 5785 5786 5787 5788 5789 5791 5792 5793 5794 5795 5796 5798 5799 5801 5803 5805 5806 5808 5809 5811 5812 5813 5815 5816 5817 5818 5819 5820
5753 5756 5758 5762 5765 5767 5768 5770 5772 5773 5775 5776 5777 5778 5779 5780 5781 5782 5784 5785 5786 5787 5788 5789 5790 5791 5792 5794 5795 5797 5799 5800 5802 5803 5805 5806 5808 5809 5810 5811 5812 5813 5814 5815
5748 5751 5753 5756 5759 5761 5763 5765 5767 5768 5770 5771 5773 5774 5775 5776 5777 5778 5780 5781 5782 5783 5784 5785 5786 5787 5789 5790 5791 5793 5794 5796 5797 5798 5800 5801 5803 5804 5805 5806 5807 5808 5809 5810
5743 5745 5747 5750 5754 5756 5758 5760 5762 5764 5766 5767 5768 5770 5771 5772 5773 5775 5776 5777 5778 5779 5780 5781 5782 5783 5785 5786 5787 5789 5790 5791 5792 5793 5795 5796 5797 5799 5800 5801 5802 5803 5804 5804
5737 5739 5742 5746 5748 5751 5754 5756 5757 5759 5761 5763 5764 5765 5766 5768 5769 5770 5771 5773 5774 5775 5776 5777 5778 5779 5780 5781 5783 5784 5785 5786 5787 5788 5789 5791 5792 5793 5794 5796 5796 5797 5798 5799